Location: Franzen
(48.6167°N, 15.3833°E)
Time: 18:43:46
(UTC+00:00)

A-11 Canister half - Pass Details

Date: 28 July 2021
Orbit: 1515 x 1685 km, 47.2° (Epoch: 19 September)

Event Time Altitude Azimuth Distance (km) Brightness Sun altitude
Rises 16:18:11 0° 215° (SW) 4,786 12.0 21.7°
Reaches altitude 10° 16:21:26 10° 208° (SSW) 3,827 11.5 21.1°
Maximum altitude 16:30:24 42° 142° (SE) 2,206 9.7 19.6°
Drops below altitude 10° 16:39:37 10° 76° (ENE) 3,941 10.7 18.1°
Sets 16:43:01 0° 70° (ENE) 4,940 11.1 17.6°
